TimeCEST,TemperatureF,Dew PointF,Humidity,Sea Level PressureIn,VisibilityMPH,Wind Direction,Wind SpeedMPH,Gust SpeedMPH,PrecipitationIn,Events,Conditions,WindDirDegrees,DateUTC
12:55 AM,68.0,66.2,94,29.77,6.2,WNW,2.3,-,N/A,,Scattered Clouds,300,2013-09-18 22:55:00
1:55 AM,66.2,62.6,88,29.77,6.2,East,2.3,-,N/A,,Scattered Clouds,80,2013-09-18 23:55:00
2:00 AM,66,63,85,29.78,12,East,2.3,,,,Partly Cloudy,80,2013-09-19 00:00:00
2:55 AM,66.2,62.6,88,29.77,6.2,East,2.3,-,N/A,,Scattered Clouds,90,2013-09-19 00:55:00
3:55 AM,64.4,60.8,88,29.74,6.2,Calm,Calm,-,N/A,,Scattered Clouds,0,2013-09-19 01:55:00
4:55 AM,64.4,59.0,83,29.74,6.2,Calm,Calm,-,N/A,,Scattered Clouds,0,2013-09-19 02:55:00
5:00 AM,64,60,82,29.75,12,Calm,Calm,,,,Mostly Cloudy,,2013-09-19 03:00:00
5:55 AM,60.8,57.2,88,29.74,6.2,SSE,2.3,-,N/A,,Scattered Clouds,150,2013-09-19 03:55:00
6:55 AM,62.6,57.2,82,29.74,6.2,North,2.3,-,N/A,,Scattered Clouds,10,2013-09-19 04:55:00
7:55 AM,62.6,57.2,82,29.74,3.1,Calm,Calm,-,N/A,,Partly Cloudy,0,2013-09-19 05:55:00
8:00 AM,63,58,79,29.75,3,Calm,Calm,,,,Mist,,2013-09-19 06:00:00
8:55 AM,69.8,64.4,83,29.74,6.2,North,1.2,-,N/A,,Partly Cloudy,10,2013-09-19 06:55:00
9:55 AM,73.4,69.8,88,29.74,6.2,Calm,Calm,-,N/A,,Partly Cloudy,0,2013-09-19 07:55:00
10:55 AM,75.2,69.8,83,29.74,6.2,WSW,5.8,-,N/A,,Scattered Clouds,240,2013-09-19 08:55:00
11:00 AM,76,70,75,29.75,10,WSW,5.8,,,,Partly Cloudy,240,2013-09-19 09:00:00
11:55 AM,78.8,69.8,74,29.74,6.2,West,5.8,-,N/A,,Scattered Clouds,270,2013-09-19 09:55:00
12:55 PM,75.2,68.0,78,29.74,6.2,West,9.2,-,N/A,,Scattered Clouds,260,2013-09-19 10:55:00
1:55 PM,78.8,71.6,78,29.74,6.2,West,10.4,-,N/A,,Scattered Clouds,270,2013-09-19 11:55:00
2:00 PM,80,71,68,29.76,12,West,10.4,,,,Partly Cloudy,270,2013-09-19 12:00:00
2:55 PM,77.0,68.0,74,29.77,6.2,West,12.7,-,N/A,,Scattered Clouds,270,2013-09-19 12:55:00
3:55 PM,77.0,71.6,83,29.77,6.2,West,12.7,-,N/A,,Scattered Clouds,260,2013-09-19 13:55:00
4:55 PM,75.2,69.8,83,29.77,6.2,West,9.2,-,N/A,,Partly Cloudy,270,2013-09-19 14:55:00
5:00 PM,75,70,80,29.77,12,West,9.2,,,,Partly Cloudy,270,2013-09-19 15:00:00
5:55 PM,73.4,69.8,88,29.77,6.2,West,8.1,-,N/A,,Partly Cloudy,260,2013-09-19 15:55:00
6:55 PM,71.6,64.4,78,29.77,6.2,West,3.5,-,N/A,,Partly Cloudy,280,2013-09-19 16:55:00
7:55 PM,69.8,64.4,83,29.80,6.2,South,3.5,-,N/A,,Partly Cloudy,190,2013-09-19 17:55:00
8:00 PM,69,65,84,29.80,12,South,3.5,,,,Scattered Clouds,190,2013-09-19 18:00:00
8:55 PM,68.0,66.2,94,29.80,-9999.0,SE,2.3,-,N/A,,Clear,130,2013-09-19 18:55:00
9:55 PM,64.4,64.4,100,29.83,-9999.0,South,2.3,-,N/A,,Clear,180,2013-09-19 19:55:00
10:55 PM,62.6,62.6,100,29.83,-9999.0,East,3.5,-,N/A,,Clear,90,2013-09-19 20:55:00
11:00 PM,63,63,98,29.84,12,East,3.5,,,,,90,2013-09-19 21:00:00
11:55 PM,62.6,60.8,94,29.83,-9999.0,SE,2.3,-,N/A,,Clear,140,2013-09-19 21:55:00